Regional Weather Roundup
Issued by NWS Midland/Odessa, TX

Skip options and go directly to product.
Home | Oldest Version | Previous Version | Current Version | All | Text Only | Save Text | Print | Product List | Glossary Off

Skip product version selection by date and time.   

975
ASUS44 KMAF 260910
RWRMAF
MIDLAND AREA WEATHER ROUNDUP
NATIONAL WEATHER SERVICE MIDLAND TX
400 AM CDT SUN JUN 26 2016

...IN SOUTHWEST TEXAS AND SOUTHEAST NEW MEXICO...

CITY           SKY/WX    TMP DP  RH WIND       PRES   REMARKS
ALPINE         PTCLDY    69  59  71 SW7       30.17S
ANDREWS        FAIR      74  62  65 S9        30.10R
ARTESIA        CLOUDY    70  68  94 NW8       30.09R
BIG SPRING     CLOUDY    73  64  72 SE15      30.12R
CARLSBAD       CLOUDY    73  64  73 E7        30.05S
DRYDEN           N/A     72  64  76 NE9       30.03R
FORT STOCKTON  CLEAR     72  59  63 S15G22    30.04F
GUAD PASS      CLEAR     68  52  56 W10         N/A
HOBBS          CLEAR     73  64  73 SE9       30.11F
MARFA          CLEAR    N/A N/A N/A NW7       30.17R
MIDLAND AIRPK  CLOUDY    77  66  69 SE13      30.10R
MIDLAND INTL   MOCLDY    76  66  71 SE14      30.09R
ODESSA         CLOUDY    75  64  68 SE10      30.09S
PECOS          CLEAR     74  64  72 E9        30.00S
PRESIDIO       FAIR      79  58  48 NE7       30.01S
SEMINOLE       PTCLDY    75  64  67 S6        30.10S
SNYDER           N/A     74  67  80 SE10      30.10F
WINK           CLEAR     74  60  61 SE13      30.02F
$$
...OTHER STATIONS IN TEXAS...

CITY           SKY/WX    TMP DP  RH WIND       PRES   REMARKS
ABILENE        CLOUDY    75  70  84 SE9       30.09S
AMARILLO       CLOUDY    69  60  73 N3        30.15S
AUSTIN         CLOUDY    76  75  97 CALM      30.08R
BROWNSVILLE    CLOUDY    79  76  90 E5        30.02R
CORPUS CHRISTI MOCLDY    78  76  93 SE6       30.02F
DALLAS FTW     CLOUDY    81  72  74 S8        30.07S
DEL RIO        LGT RAIN  72  71  97 E12       29.99F
EL PASO        PTCLDY    76  52  43 W3        30.05F
HOUSTON INT    MOCLDY    76  75  97 CALM      30.06S
LUBBOCK        CLOUDY    74  67  78 SE9       30.11S
SAN ANGELO     CLOUDY    75  70  84 E5        30.08S
SAN ANTONIO    CLOUDY    78  74  87 S8        30.08R
WACO           MOCLDY    78  74  87 SE6       30.09S
WICHITA FALLS  NOT AVBL
$$
...OTHER LOCATIONS IN NEW MEXICO...

CITY           SKY/WX    TMP DP  RH WIND       PRES   REMARKS
ALAMAGORDO     CLEAR     72  54  53 CALM      30.09R
ALBUQUERQUE    CLOUDY    74  47  38 SE6       30.19S
CANNON AFB     CLOUDY    72  57  60 E8        30.18R
CLOVIS         CLOUDY    66  55  68 E7        30.18S
HOLLOMAN AFB   PTCLDY    73  50  43 NE3       30.07R
ROSWELL        CLEAR     73  59  61 N5        30.09S
RUIDOSO          N/A     63  48  59 SW3       30.33S
SANTA FE       CLOUDY    62  50  64 S5        30.28S
TRUTH OR CONSE MOCLDY    72  53  51 N5        30.13F
TUCUMCARI      CLOUDY    69  66  90 SE8       30.18R
$$

USA.gov is the U.S. government's official web portal to all federal, state and local government web resources and services.